Data for 03/30/2017

Time Sea-Level Adjusted Pressure Absolute Pressure Temperature Relative Humidity Dew Point   
(mb) (inHg) (mb) (inHg) (C) (F) (%) (C) (F)
00:05 1014 29.94 843 24.89 6.6 43.8 80 3.3 37.9
00:10 1014 29.94 843 24.89 6.4 43.6 81 3.5 38.2
00:15 1013 29.91 843 24.89 6.1 43 84 3.6 38.4
00:20 1013 29.91 843 24.89 5.9 42.6 85 3.6 38.5
00:25 1013 29.91 842 24.86 5.8 42.5 86 3.7 38.7
00:30 1013 29.91 842 24.86 5.8 42.4 86 3.5 38.4
00:35 1013 29.91 842 24.86 5.7 42.3 85 3.4 38.1
00:40 1013 29.91 842 24.86 5.7 42.3 84 3.3 37.9
00:45 1013 29.91 842 24.86 5.7 42.2 84 3.1 37.6
00:50 1013 29.91 842 24.86 5.6 42.1 85 3.3 37.9
00:55 1013 29.91 842 24.86 5.6 42.1 86 3.4 38.1
01:00 1013 29.91 842 24.86 5.5 41.8 86 3.3 38
01:05 1013 29.91 842 24.86 5.4 41.7 87 3.3 38
01:10 1013 29.91 842 24.86 5.3 41.6 87 3.4 38
01:15 1013 29.91 842 24.86 5.3 41.5 87 3.3 38
01:20 1013 29.91 842 24.86 5.2 41.4 87 3.3 37.9
01:25 1013 29.91 842 24.86 5.3 41.5 87 3.3 38
01:30 1013 29.91 842 24.86 5.2 41.3 87 3.2 37.8
01:35 1012 29.88 842 24.86 5.2 41.4 87 3.2 37.8
01:40 1012 29.88 842 24.86 5.3 41.5 86 3.1 37.7
01:45 1012 29.88 842 24.86 5.3 41.5 86 3.1 37.6
01:50 1012 29.88 841 24.83 5.2 41.4 86 3.1 37.6
01:55 1012 29.88 841 24.83 5.2 41.4 86 3.1 37.5
02:00 1012 29.88 841 24.83 5.2 41.4 86 3 37.4
02:05 1012 29.88 841 24.83 5.3 41.5 85 3 37.4
02:10 1012 29.88 841 24.83 5.3 41.6 84 2.9 37.3
02:15 1012 29.88 841 24.83 5.4 41.8 84 2.9 37.2
02:20 1012 29.88 841 24.83 5.5 41.8 84 2.9 37.3
02:25 1012 29.88 841 24.83 5.4 41.8 84 3 37.4
02:30 1012 29.88 841 24.83 5.4 41.8 84 2.9 37.2
02:35 1012 29.88 841 24.83 5.4 41.8 84 2.9 37.2
02:40 1011 29.85 841 24.83 5.5 41.8 83 2.8 37
02:45 1011 29.85 841 24.83 5.5 41.9 83 2.8 37
02:50 1011 29.85 841 24.83 5.5 41.9 83 2.9 37.1
02:55 1011 29.85 841 24.83 5.4 41.8 83 2.8 37.1
03:00 1011 29.85 841 24.83 5.5 41.9 83 2.9 37.2
03:05 1011 29.85 840 24.81 5.5 41.8 83 2.8 37.1
03:10 1011 29.85 840 24.81 5.4 41.8 83 2.8 37
03:15 1011 29.85 840 24.81 5.4 41.8 82 2.7 36.8
03:20 1011 29.85 840 24.81 5.5 41.9 82 2.6 36.7
03:25 1011 29.85 840 24.81 5.5 41.9 82 2.6 36.7
03:30 1011 29.85 840 24.81 5.5 41.9 82 2.7 36.8
03:35 1011 29.85 840 24.81 5.5 41.8 81 2.6 36.6
03:40 1011 29.85 840 24.81 5.6 42.1 81 2.6 36.7
03:45 1011 29.85 840 24.81 5.6 42 82 2.7 36.9
03:50 1010 29.83 840 24.81 5.4 41.7 83 2.7 36.9
03:55 1010 29.83 840 24.81 5.4 41.7 83 2.7 36.9
04:00 1010 29.83 839 24.78 5.4 41.7 83 2.7 36.9
04:05 1010 29.83 839 24.78 5.4 41.7 83 2.7 36.9
04:10 1010 29.83 839 24.78 5.3 41.5 83 2.6 36.8
04:15 1010 29.83 839 24.78 5.3 41.5 84 2.7 36.9
04:20 1010 29.83 839 24.78 5.2 41.4 83 2.6 36.7
04:25 1010 29.83 839 24.78 5.2 41.4 83 2.6 36.7
04:30 1010 29.83 839 24.78 5.4 41.7 83 2.7 36.9
04:35 1010 29.83 839 24.78 5.4 41.7 84 2.9 37.2
04:40 1010 29.83 839 24.78 5.3 41.5 85 2.9 37.2
04:45 1010 29.83 839 24.78 5.3 41.5 86 3.1 37.5
04:50 1010 29.83 839 24.78 5.3 41.6 85 3 37.3
04:55 1010 29.83 839 24.78 5.3 41.6 85 3 37.4
05:00 1010 29.83 839 24.78 5.3 41.5 86 3.1 37.5
05:05 1010 29.83 839 24.78 5.3 41.5 86 3.2 37.7
05:10 1010 29.83 839 24.78 5.3 41.5 86 3.2 37.7
05:15 1010 29.83 839 24.78 5.2 41.4 87 3.3 37.9
05:20 1010 29.83 839 24.78 5.3 41.5 87 3.3 38
05:25 1010 29.83 839 24.78 5.3 41.6 88 3.4 38.2
05:30 1010 29.83 839 24.78 5.3 41.5 88 3.5 38.3
05:35 1010 29.83 839 24.78 5.2 41.4 88 3.4 38.1
05:40 1010 29.83 839 24.78 5 41 88 3.1 37.7
05:45 1010 29.83 840 24.81 5 41 89 3.3 37.9
05:50 1010 29.83 840 24.81 5 41 88 3.3 37.9
05:55 1010 29.83 840 24.81 5 40.9 89 3.3 37.9
06:00 1010 29.83 840 24.81 4.8 40.7 89 3.2 37.8
06:05 1010 29.83 840 24.81 4.7 40.4 90 3.2 37.8
06:10 1010 29.83 840 24.81 4.7 40.5 90 3.2 37.7
06:15 1010 29.83 840 24.81 4.7 40.5 89 3.1 37.6
06:20 1010 29.83 840 24.81 4.8 40.6 90 3.3 37.9
06:25 1011 29.85 840 24.81 4.8 40.7 90 3.3 38
06:30 1011 29.85 840 24.81 4.8 40.7 90 3.3 38
06:35 1011 29.85 840 24.81 4.7 40.5 89 3 37.4
06:40 1011 29.85 840 24.81 4.5 40.1 87 2.6 36.7
06:45 1011 29.85 840 24.81 4.2 39.6 84 1.8 35.2
06:50 1011 29.85 840 24.81 3.9 39 83 1.3 34.3
06:55 1011 29.85 840 24.81 3.4 38.2 85 1.1 34
07:00 1011 29.85 840 24.81 3 37.4 86 0.9 33.6
07:05 1011 29.85 840 24.81 2.5 36.5 86 0.5 32.9
07:10 1011 29.85 840 24.81 2.3 36.2 88 0.6 33.1
07:15 1011 29.85 840 24.81 2.2 35.9 88 0.4 32.8
07:20 1011 29.85 840 24.81 2 35.7 89 0.4 32.7
07:25 1011 29.85 840 24.81 1.9 35.4 90 0.4 32.7
07:30 1011 29.85 840 24.81 1.9 35.5 90 0.5 32.8
07:35 1011 29.85 840 24.81 2.1 35.7 90 0.5 32.9
07:40 1011 29.85 840 24.81 2.1 35.7 89 0.4 32.8
07:45 1011 29.85 840 24.81 2 35.6 89 0.4 32.7
07:50 1011 29.85 840 24.81 2 35.6 89 0.4 32.7
07:55 1011 29.85 840 24.81 2 35.6 89 0.3 32.5
08:00 1011 29.85 840 24.81 1.9 35.5 88 0.1 32.3
08:05 1011 29.85 840 24.81 1.8 35.3 89 0.1 32.3
08:10 1011 29.85 840 24.81 1.8 35.2 89 0.2 32.3
08:15 1011 29.85 840 24.81 1.8 35.2 89 0.2 32.3
08:20 1011 29.85 840 24.81 1.8 35.2 89 0.2 32.3
08:25 1011 29.85 840 24.81 1.8 35.2 89 0.2 32.4
08:30 1011 29.85 840 24.81 1.8 35.2 89 0.2 32.3
08:35 1011 29.85 840 24.81 1.7 35.1 89 0.2 32.3
08:40 1011 29.85 840 24.81 1.8 35.2 89 0.2 32.3
08:45 1011 29.85 840 24.81 1.8 35.2 89 0.2 32.4
08:50 1011 29.85 840 24.81 2 35.5 89 0.4 32.7
08:55 1011 29.85 840 24.81 2 35.5 89 0.4 32.7
09:00 1011 29.85 840 24.81 2 35.6 90 0.5 33
09:05 1011 29.85 840 24.81 2.1 35.7 90 0.6 33.1
09:10 1011 29.85 840 24.81 2.1 35.8 90 0.6 33.1
09:15 1011 29.85 840 24.81 2.3 36.1 90 0.7 33.3
09:20 1011 29.85 840 24.81 2.6 36.6 89 1 33.8
09:25 1011 29.85 840 24.81 2.8 37 87 0.8 33.5
09:30 1011 29.85 840 24.81 2.7 36.8 88 1 33.7
09:35 1011 29.85 840 24.81 2.7 36.9 90 1.2 34.1
09:40 1011 29.85 840 24.81 2.8 37 89 1.1 34
09:45 1011 29.85 840 24.81 2.9 37.2 88 1.1 34.1
09:50 1011 29.85 840 24.81 2.9 37.3 89 1.2 34.2
09:55 1011 29.85 840 24.81 3.2 37.7 88 1.4 34.4
10:00 1011 29.85 840 24.81 3.1 37.6 89 1.5 34.6
10:05 1011 29.85 840 24.81 3.2 37.8 88 1.4 34.5
10:10 1011 29.85 840 24.81 3 37.5 89 1.3 34.4
10:15 1011 29.85 840 24.81 3.2 37.8 88 1.4 34.6
10:20 1011 29.85 840 24.81 3.3 37.9 87 1.3 34.4
10:25 1011 29.85 840 24.81 3.3 38 88 1.5 34.6
10:30 1011 29.85 840 24.81 3.7 38.6 86 1.6 34.9
10:35 1011 29.85 840 24.81 3.9 39 87 1.9 35.4
10:40 1011 29.85 840 24.81 3.8 38.8 88 1.9 35.5
10:45 1011 29.85 840 24.81 4.1 39.3 88 2.3 36.2
10:50 1011 29.85 840 24.81 4.3 39.7 87 2.3 36.1
10:55 1011 29.85 840 24.81 4.6 40.3 86 2.5 36.4
11:00 1011 29.85 840 24.81 5.1 41.2 86 2.9 37.2
11:05 1011 29.85 840 24.81 5.2 41.3 84 2.7 36.8
11:10 1011 29.85 840 24.81 5.4 41.8 82 2.5 36.6
11:15 1011 29.85 840 24.81 5 40.9 83 2.4 36.3
11:20 1011 29.85 840 24.81 5 41.1 82 2.3 36.2
11:25 1011 29.85 840 24.81 5 40.9 83 2.3 36.1
11:30 1011 29.85 840 24.81 5 41 82 2.2 36
11:35 1011 29.85 840 24.81 4.8 40.7 83 2.2 36
11:40 1011 29.85 840 24.81 5.1 41.1 84 2.6 36.8
11:45 1011 29.85 840 24.81 5.2 41.4 79 1.9 35.4
11:50 1010 29.83 840 24.81 5.5 41.9 81 2.5 36.4
11:55 1010 29.83 840 24.81 5.8 42.4 78 2.2 36
12:00 1010 29.83 840 24.81 5.7 42.3 82 2.8 37.1
12:05 1010 29.83 839 24.78 6.6 43.9 73 2.1 35.7
12:10 1010 29.83 839 24.78 6.6 44 74 2.4 36.3
12:15 1010 29.83 839 24.78 6.8 44.3 72 2.2 36
12:20 1010 29.83 839 24.78 7 44.5 74 2.7 36.9
12:25 1010 29.83 839 24.78 7.3 45.2 73 2.8 37
12:30 1010 29.83 839 24.78 7.8 46 65 1.6 34.8
12:35 1010 29.83 839 24.78 7.6 45.6 66 1.6 34.8
12:40 1010 29.83 839 24.78 7.8 46 62 1.1 33.9
12:45 1010 29.83 839 24.78 8.1 46.7 59 0.7 33.3
12:50 1010 29.83 839 24.78 8.2 46.7 63 1.5 34.7
12:55 1010 29.83 839 24.78 8.2 46.8 57 0.3 32.5
13:00 1010 29.83 839 24.78 8.2 46.7 58 0.4 32.8
13:05 1010 29.83 839 24.78 8.6 47.6 53 -0.5 31.2
13:10 1010 29.83 839 24.78 9 48.3 53 0.1 32.1
13:15 1010 29.83 839 24.78 9.4 48.9 55 0.8 33.5
13:20 1010 29.83 839 24.78 9.6 49.3 53 0.5 32.9
13:25 1009 29.8 839 24.78 9.4 48.9 54 0.7 33.2
13:30 1009 29.8 839 24.78 9.7 49.4 51 0.1 32.2
13:35 1009 29.8 839 24.78 10.7 51.2 48 0 32
13:40 1009 29.8 838 24.75 10.6 51 46 -0.5 31
13:45 1009 29.8 838 24.75 10.5 50.9 51 0.9 33.7
13:50 1009 29.8 838 24.75 10 50 55 1.3 34.4
13:55 1009 29.8 838 24.75 9.4 48.9 54 0.5 32.9
14:00 1009 29.8 838 24.75 9.8 49.6 47 -0.9 30.3
14:05 1009 29.8 838 24.75 10.6 51 48 -0 31.9
14:10 1009 29.8 838 24.75 11.3 52.3 46 0 32.1
14:15 1009 29.8 838 24.75 11.9 53.4 47 1 33.7
14:20 1009 29.8 838 24.75 11.2 52.2 49 0.9 33.7
14:25 1009 29.8 838 24.75 10.2 50.4 51 0.5 32.9
14:30 1009 29.8 838 24.75 10 50 52 0.7 33.3
14:35 1009 29.8 838 24.75 10.1 50.2 49 -0 31.9
14:40 1009 29.8 838 24.75 10.4 50.7 49 0.2 32.3
14:45 1009 29.8 838 24.75 10.2 50.3 51 0.6 33
14:50 1009 29.8 838 24.75 9.9 49.9 50 -0 32
14:55 1009 29.8 838 24.75 11 51.8 50 1 33.8
15:00 1009 29.8 838 24.75 9.3 48.8 57 1.4 34.5
15:05 1009 29.8 838 24.75 8.7 47.6 58 0.9 33.6
15:10 1009 29.8 838 24.75 8.7 47.6 58 1 33.7
15:15 1009 29.8 838 24.75 8.8 47.9 59 1.3 34.4
15:20 1009 29.8 838 24.75 8.9 48.1 56 0.7 33.3
15:25 1009 29.8 838 24.75 8.8 47.9 57 0.9 33.6
15:30 1009 29.8 838 24.75 9.5 49 56 1 33.9
15:35 1009 29.8 838 24.75 9.6 49.2 59 2 35.7
15:40 1009 29.8 838 24.75 8.4 47 63 1.9 35.3
15:45 1009 29.8 838 24.75 8 46.3 64 1.5 34.7
15:50 1009 29.8 838 24.75 8.5 47.3 60 1.1 34.1
15:55 1009 29.8 838 24.75 8.8 47.8 64 2.5 36.4
16:00 1009 29.8 838 24.75 9.4 48.8 64 3 37.4
16:05 1009 29.8 838 24.75 9.7 49.5 61 2.5 36.5
16:10 1009 29.8 838 24.75 9.9 49.7 54 1 33.7
16:15 1009 29.8 838 24.75 9.6 49.3 55 1.1 34
16:20 1009 29.8 838 24.75 9.6 49.4 57 1.5 34.7
16:25 1009 29.8 838 24.75 10 49.9 55 1.4 34.5
16:30 1009 29.8 838 24.75 9.9 49.9 54 1.1 34.1
16:35 1009 29.8 838 24.75 9.9 49.9 52 0.7 33.2
16:40 1009 29.8 838 24.75 9.9 49.8 55 1.4 34.5
16:45 1009 29.8 838 24.75 9.9 49.7 52 0.4 32.7
16:50 1009 29.8 838 24.75 9.6 49.3 53 0.5 32.9
16:55 1009 29.8 838 24.75 9.8 49.6 53 0.8 33.5
17:00 1009 29.8 838 24.75 9.8 49.7 50 -0 32
17:05 1009 29.8 838 24.75 9.7 49.5 52 0.3 32.6
17:10 1009 29.8 838 24.75 9.7 49.5 51 0.1 32.1
17:15 1009 29.8 838 24.75 9.8 49.6 52 0.3 32.6
17:20 1009 29.8 838 24.75 9.6 49.4 53 0.5 32.9
17:25 1009 29.8 838 24.75 9.5 49 55 0.9 33.7
17:30 1009 29.8 838 24.75 9.4 48.9 54 0.5 33
17:35 1009 29.8 839 24.78 9.3 48.8 54 0.5 32.9
17:40 1009 29.8 839 24.78 9.3 48.8 55 0.8 33.5
17:45 1009 29.8 839 24.78 9.2 48.5 57 1.2 34.2
17:50 1009 29.8 839 24.78 9.1 48.4 58 1.3 34.3
17:55 1010 29.83 839 24.78 9 48.1 57 0.9 33.6
18:00 1010 29.83 839 24.78 8.9 48 56 0.7 33.3
18:05 1010 29.83 839 24.78 8.9 48 56 0.7 33.3
18:10 1010 29.83 839 24.78 8.9 48.1 57 1 33.7
18:15 1010 29.83 839 24.78 9.1 48.3 56 0.8 33.4
18:20 1010 29.83 839 24.78 9.1 48.3 55 0.5 33
18:25 1010 29.83 839 24.78 8.8 47.9 56 0.5 32.8
18:30 1010 29.83 839 24.78 8.7 47.7 57 0.6 33.1
18:35 1010 29.83 839 24.78 8.7 47.6 57 0.8 33.4
18:40 1010 29.83 839 24.78 8.5 47.3 59 0.9 33.6
18:45 1010 29.83 839 24.78 8.3 46.9 59 0.8 33.5
18:50 1010 29.83 839 24.78 8.2 46.7 60 0.9 33.6
18:55 1010 29.83 840 24.81 8.1 46.7 59 0.7 33.3
19:00 1010 29.83 840 24.81 8.2 46.7 60 0.9 33.6
19:05 1010 29.83 840 24.81 8.2 46.7 61 1.1 34
19:10 1010 29.83 840 24.81 8 46.4 63 1.5 34.7
19:15 1010 29.83 840 24.81 7.8 46 64 1.5 34.7
19:20 1011 29.85 840 24.81 7.5 45.5 68 2 35.5
19:25 1011 29.85 840 24.81 7.3 45.1 69 2.1 35.7
19:30 1011 29.85 840 24.81 7.2 45 68 1.8 35.3
19:35 1011 29.85 840 24.81 7.1 44.9 69 1.8 35.3
19:40 1011 29.85 840 24.81 7.1 44.7 69 1.8 35.2
19:45 1011 29.85 840 24.81 7 44.7 69 1.7 35
19:50 1011 29.85 840 24.81 7 44.5 69 1.7 35
19:55 1011 29.85 840 24.81 7 44.6 66 1.1 34
20:00 1011 29.85 840 24.81 7 44.6 67 1.3 34.3
20:05 1011 29.85 840 24.81 7 44.6 66 1.1 34
20:10 1011 29.85 840 24.81 7 44.6 65 1 33.8
20:15 1011 29.85 841 24.83 7 44.6 66 1.1 33.9
20:20 1011 29.85 841 24.83 6.9 44.5 67 1.2 34.1
20:25 1011 29.85 841 24.83 6.8 44.3 67 1.2 34.1
20:30 1012 29.88 841 24.83 6.8 44.2 68 1.2 34.2
20:35 1012 29.88 841 24.83 6.7 44 70 1.6 34.8
20:40 1012 29.88 841 24.83 6.5 43.8 71 1.7 35.1
20:45 1012 29.88 841 24.83 6.4 43.6 72 1.7 35
20:50 1012 29.88 841 24.83 6.3 43.4 74 2.1 35.9
20:55 1012 29.88 841 24.83 6.1 43 79 2.8 37
21:00 1012 29.88 841 24.83 5.8 42.4 81 2.8 37
21:05 1012 29.88 841 24.83 5.6 42.1 82 2.8 37
21:10 1012 29.88 841 24.83 5.6 42.1 81 2.7 36.8
21:15 1012 29.88 842 24.86 5.6 42.1 82 2.8 37
21:20 1012 29.88 842 24.86 5.6 42 81 2.6 36.7
21:25 1013 29.91 842 24.86 5.6 42.1 80 2.5 36.5
21:30 1013 29.91 842 24.86 5.5 41.9 79 2.1 35.7
21:35 1013 29.91 842 24.86 5.4 41.8 79 2.1 35.8
21:40 1013 29.91 842 24.86 5.4 41.7 80 2.2 36
21:45 1013 29.91 842 24.86 5.4 41.7 83 2.7 36.8
21:50 1013 29.91 842 24.86 5.3 41.5 82 2.4 36.4
21:55 1013 29.91 842 24.86 5.3 41.5 82 2.4 36.4
22:00 1013 29.91 842 24.86 5.2 41.4 81 2.2 36
22:05 1013 29.91 842 24.86 5.2 41.3 82 2.3 36.1
22:10 1013 29.91 842 24.86 5.2 41.3 80 2.1 35.8
22:15 1013 29.91 843 24.89 5.2 41.3 80 2 35.6
22:20 1013 29.91 843 24.89 5.1 41.1 80 1.8 35.3
22:25 1013 29.91 843 24.89 5 41 79 1.7 35.1
22:30 1013 29.91 843 24.89 5 41 80 1.8 35.3
22:35 1013 29.91 843 24.89 5 41 80 1.9 35.4
22:40 1014 29.94 843 24.89 5 41.1 79 1.7 35.1
22:45 1014 29.94 843 24.89 5.1 41.2 79 1.8 35.2
22:50 1014 29.94 843 24.89 5.1 41.1 78 1.6 34.9
22:55 1014 29.94 843 24.89 5.1 41.2 79 1.7 35.1
23:00 1014 29.94 843 24.89 5.1 41.2 79 1.8 35.2
23:05 1014 29.94 843 24.89 5 41 80 1.8 35.2
23:10 1014 29.94 843 24.89 4.9 40.9 81 1.9 35.5
23:15 1014 29.94 843 24.89 4.9 40.8 81 2 35.5
23:20 1014 29.94 843 24.89 4.9 40.8 80 1.8 35.2
23:25 1014 29.94 843 24.89 5 41 80 1.9 35.4
23:30 1014 29.94 843 24.89 5 41.1 80 1.9 35.4
23:35 1014 29.94 843 24.89 5 41.1 80 2 35.5
23:40 1014 29.94 843 24.89 5 41.1 81 2.1 35.8
23:45 1014 29.94 843 24.89 5 41 82 2.2 35.9
23:50 1014 29.94 843 24.89 4.9 40.9 83 2.3 36.1
23:55 1014 29.94 843 24.89 4.9 40.7 83 2.3 36.1
24:00 1014 29.94 843 24.89 4.9 40.8 83 2.3 36.1